TimeCST,TemperatureF,Dew PointF,Humidity,Sea Level PressureIn,VisibilityMPH,Wind Direction,Wind SpeedMPH,Gust SpeedMPH,PrecipitationIn,Events,Conditions,WindDirDegrees,DateUTC
12:15 AM,15.8,10.2,79,30.24,10.0,NW,5.8,-,N/A,,Clear,310,2013-01-02 06:15:00
12:35 AM,15.4,10.2,80,30.24,10.0,NW,4.6,-,N/A,,Clear,320,2013-01-02 06:35:00
12:55 AM,14.9,9.9,80,30.24,10.0,NNW,4.6,-,N/A,,Clear,330,2013-01-02 06:55:00
1:15 AM,14.0,9.5,82,30.25,10.0,WNW,5.8,-,N/A,,Clear,300,2013-01-02 07:15:00
1:35 AM,14.0,9.7,83,30.25,10.0,WNW,5.8,-,N/A,,Clear,300,2013-01-02 07:35:00
1:55 AM,13.6,9.7,84,30.27,10.0,NW,5.8,-,N/A,,Clear,310,2013-01-02 07:55:00
2:15 AM,13.8,9.5,83,30.26,10.0,NW,5.8,-,N/A,,Clear,320,2013-01-02 08:15:00
2:35 AM,13.5,9.5,84,30.27,10.0,NW,5.8,-,N/A,,Clear,320,2013-01-02 08:35:00
2:55 AM,13.3,9.5,85,30.26,10.0,NW,4.6,-,N/A,,Clear,320,2013-01-02 08:55:00
3:15 AM,12.9,9.3,86,30.27,10.0,NW,5.8,-,N/A,,Clear,320,2013-01-02 09:15:00
3:35 AM,12.9,9.3,86,30.26,10.0,NW,8.1,-,N/A,,Clear,320,2013-01-02 09:35:00
3:55 AM,12.4,9.0,86,30.25,10.0,NNW,5.8,-,N/A,,Clear,330,2013-01-02 09:55:00
4:15 AM,12.0,8.6,86,30.24,10.0,NNW,4.6,-,N/A,,Clear,340,2013-01-02 10:15:00
4:35 AM,11.7,8.4,87,30.24,10.0,Calm,Calm,-,N/A,,Clear,0,2013-01-02 10:35:00
4:55 AM,11.7,8.6,88,30.24,10.0,Calm,Calm,-,N/A,,Clear,0,2013-01-02 10:55:00
5:15 AM,10.8,8.1,89,30.25,10.0,Calm,Calm,-,N/A,,Clear,0,2013-01-02 11:15:00
5:35 AM,9.9,7.3,90,30.26,10.0,Calm,Calm,-,N/A,,Clear,0,2013-01-02 11:35:00
5:55 AM,10.4,8.6,92,30.25,10.0,WNW,3.5,-,N/A,,Clear,300,2013-01-02 11:55:00
6:15 AM,10.4,7.7,89,30.26,10.0,Calm,Calm,-,N/A,,Clear,0,2013-01-02 12:15:00
6:35 AM,9.3,6.8,89,30.28,10.0,West,3.5,-,N/A,,Clear,280,2013-01-02 12:35:00
6:55 AM,11.3,7.9,86,30.28,10.0,West,3.5,-,N/A,,Clear,280,2013-01-02 12:55:00
7:15 AM,8.6,6.4,91,30.29,7.0,Calm,Calm,-,N/A,,Clear,0,2013-01-02 13:15:00
7:35 AM,9.7,7.7,92,30.29,7.0,SW,3.5,-,N/A,,Clear,230,2013-01-02 13:35:00
7:55 AM,9.9,7.3,90,30.30,7.0,Calm,Calm,-,N/A,,Clear,0,2013-01-02 13:55:00
8:15 AM,11.8,8.8,88,30.29,7.0,Calm,Calm,-,N/A,,Clear,0,2013-01-02 14:15:00
8:35 AM,12.6,9.0,85,30.29,7.0,Calm,Calm,-,N/A,,Clear,0,2013-01-02 14:35:00
8:55 AM,12.9,9.1,85,30.30,7.0,Calm,Calm,-,N/A,,Clear,0,2013-01-02 14:55:00
9:15 AM,12.2,9.1,88,30.30,7.0,Calm,Calm,-,N/A,,Clear,0,2013-01-02 15:15:00
9:35 AM,13.8,10.4,86,30.31,7.0,Calm,Calm,-,N/A,,Clear,0,2013-01-02 15:35:00
9:55 AM,15.6,10.4,80,30.30,7.0,Calm,Calm,-,N/A,,Clear,0,2013-01-02 15:55:00
10:15 AM,16.5,10.9,79,30.30,10.0,Calm,Calm,-,N/A,,Clear,0,2013-01-02 16:15:00
10:35 AM,17.6,10.0,72,30.29,10.0,Calm,Calm,-,N/A,,Clear,0,2013-01-02 16:35:00
10:55 AM,18.5,10.4,71,30.29,10.0,Calm,Calm,-,N/A,,Clear,0,2013-01-02 16:55:00
11:15 AM,19.4,12.6,75,30.28,10.0,Calm,Calm,-,N/A,,Clear,0,2013-01-02 17:15:00
11:35 AM,20.1,11.8,70,30.27,10.0,Calm,Calm,-,N/A,,Unknown,0,2013-01-02 17:35:00
11:55 AM,21.2,11.5,66,30.26,10.0,ESE,3.5,-,N/A,,Unknown,120,2013-01-02 17:55:00
12:15 PM,20.8,11.8,68,30.25,10.0,SSE,3.5,-,N/A,,Unknown,150,2013-01-02 18:15:00
12:35 PM,21.6,10.2,62,30.25,10.0,SSE,3.5,-,N/A,,Clear,160,2013-01-02 18:35:00
12:55 PM,22.1,11.3,63,30.24,10.0,South,4.6,-,N/A,,Clear,190,2013-01-02 18:55:00
1:15 PM,22.5,11.3,62,30.24,10.0,South,4.6,-,N/A,,Clear,190,2013-01-02 19:15:00
1:35 PM,22.5,10.6,60,30.23,10.0,SSE,4.6,-,N/A,,Clear,150,2013-01-02 19:35:00
1:55 PM,22.8,10.8,60,30.23,10.0,SSE,3.5,-,N/A,,Clear,150,2013-01-02 19:55:00
2:15 PM,23.4,13.6,66,30.24,10.0,SSE,3.5,-,N/A,,Clear,160,2013-01-02 20:15:00
2:35 PM,23.5,13.8,66,30.24,10.0,South,4.6,-,N/A,,Clear,180,2013-01-02 20:35:00
2:55 PM,23.7,14.2,67,30.24,10.0,South,5.8,-,N/A,,Clear,170,2013-01-02 20:55:00
3:15 PM,23.7,14.4,67,30.24,10.0,South,5.8,-,N/A,,Clear,170,2013-01-02 21:15:00
3:35 PM,23.5,14.5,69,30.24,10.0,South,4.6,-,N/A,,Clear,180,2013-01-02 21:35:00
4:12 PM,23.0,15.8,74,30.24,10.0,South,4.6,-,N/A,,Clear,170,2013-01-02 22:12:00
4:15 PM,23.4,15.3,71,30.24,10.0,South,4.6,-,N/A,,Clear,170,2013-01-02 22:15:00
4:35 PM,21.9,15.3,76,30.25,10.0,SSE,3.5,-,N/A,,Clear,160,2013-01-02 22:35:00
4:55 PM,19.9,14.4,79,30.25,10.0,SSE,5.8,-,N/A,,Clear,160,2013-01-02 22:55:00
5:15 PM,19.8,14.0,78,30.25,10.0,SSE,5.8,-,N/A,,Clear,160,2013-01-02 23:15:00
5:35 PM,18.7,13.6,81,30.24,10.0,SSE,5.8,-,N/A,,Clear,150,2013-01-02 23:35:00
5:55 PM,18.0,13.1,81,30.25,10.0,SSE,5.8,-,N/A,,Clear,150,2013-01-02 23:55:00
6:15 PM,17.6,14.0,86,30.24,10.0,SSE,4.6,-,N/A,,Clear,160,2013-01-03 00:15:00
6:35 PM,18.0,12.9,81,30.25,10.0,SSE,4.6,-,N/A,,Clear,160,2013-01-03 00:35:00
6:55 PM,17.6,12.2,79,30.25,10.0,South,3.5,-,N/A,,Clear,170,2013-01-03 00:55:00
7:15 PM,18.0,12.2,78,30.25,10.0,Calm,Calm,-,N/A,,Clear,0,2013-01-03 01:15:00
7:35 PM,17.2,12.2,81,30.25,10.0,Calm,Calm,-,N/A,,Clear,0,2013-01-03 01:35:00
7:55 PM,15.6,11.8,85,30.25,10.0,Calm,Calm,-,N/A,,Clear,0,2013-01-03 01:55:00
8:15 PM,14.7,11.3,86,30.25,10.0,South,4.6,-,N/A,,Clear,170,2013-01-03 02:15:00
8:35 PM,14.0,9.3,82,30.26,10.0,South,3.5,-,N/A,,Clear,190,2013-01-03 02:35:00
8:55 PM,12.9,8.2,82,30.26,10.0,South,4.6,-,N/A,,Clear,170,2013-01-03 02:55:00
9:15 PM,14.2,8.8,79,30.25,10.0,South,3.5,-,N/A,,Clear,170,2013-01-03 03:15:00
9:35 PM,13.5,7.7,78,30.25,10.0,South,5.8,-,N/A,,Clear,170,2013-01-03 03:35:00
9:55 PM,14.2,7.2,74,30.25,10.0,South,4.6,-,N/A,,Clear,180,2013-01-03 03:55:00
10:15 PM,14.0,7.7,76,30.26,10.0,SSW,4.6,-,N/A,,Clear,200,2013-01-03 04:15:00
10:35 PM,15.1,7.5,72,30.26,10.0,South,4.6,-,N/A,,Clear,180,2013-01-03 04:35:00
10:55 PM,13.8,7.5,76,30.26,10.0,South,3.5,-,N/A,,Clear,170,2013-01-03 04:55:00
11:15 PM,13.3,8.4,81,30.25,10.0,South,4.6,-,N/A,,Clear,170,2013-01-03 05:15:00
11:35 PM,13.5,7.7,78,30.25,10.0,South,4.6,-,N/A,,Clear,170,2013-01-03 05:35:00
11:55 PM,13.6,7.9,78,30.24,10.0,South,4.6,-,N/A,,Clear,180,2013-01-03 05:55:00